This is the latest recevied weather packets stored in our database for station/object SV9TNF-52. If no packets are shown the sender has not sent any weather packets the latest 10 day(s).
| Time | Temp. | Humidity | Pressure | Rain* | Wind** | Luminosity | Snow |
|---|---|---|---|---|---|---|---|
| 1788380034 | 23.33° C | 52% | 1019.6 hPa | 0 mm | 6.71 m/s, 183° | - | - |
| 1788379734 | 23.33° C | 52% | 1019.6 hPa | 0 mm | 7.15 m/s, 188° | - | - |
| 1788379434 | 23.33° C | 53% | 1019.6 hPa | 0 mm | 7.6 m/s, 172° | - | - |
| 1788379134 | 22.78° C | 53% | 1019.6 hPa | 0 mm | 6.71 m/s, 203° | - | - |
| 1788378834 | 22.78° C | 54% | 1019.6 hPa | 0 mm | 6.26 m/s, 254° | - | - |
| 1788378533 | 23.33° C | 54% | 1019.6 hPa | 0 mm | 5.81 m/s, 257° | - | - |
| 1788378233 | 22.78° C | 54% | 1019.6 hPa | 0 mm | 4.92 m/s, 194° | - | - |
| 1788377933 | 23.33° C | 54% | 1019.6 hPa | 0 mm | 8.05 m/s, 189° | - | - |
| 1788377633 | 23.33° C | 54% | 1020 hPa | 0 mm | 6.26 m/s, 205° | - | - |
| 1788377333 | 23.33° C | 54% | 1020 hPa | 0 mm | 7.15 m/s, 185° | - | - |
| 1788377033 | 23.33° C | 54% | 1020 hPa | 0 mm | 7.15 m/s, 224° | - | - |
| 1788376733 | 23.33° C | 54% | 1020 hPa | 0 mm | 6.71 m/s, 209° | - | - |
| 1788376433 | 23.33° C | 55% | 1020 hPa | 0 mm | 4.92 m/s, 179° | - | - |
| 1788376133 | 23.33° C | 55% | 1020 hPa | 0 mm | 4.02 m/s, 218° | - | - |
| 1788375833 | 23.33° C | 56% | 1020 hPa | 0 mm | 4.92 m/s, 196° | - | - |
| 1788375533 | 23.33° C | 57% | 1020 hPa | 0 mm | 2.68 m/s, 219° | - | - |
| 1788375232 | 23.33° C | 58% | 1020 hPa | 0 mm | 5.81 m/s, 273° | - | - |
| 1788374933 | 23.33° C | 58% | 1020 hPa | 0 mm | 5.81 m/s, 215° | - | - |
| 1788374632 | 23.33° C | 59% | 1020 hPa | 0 mm | 4.92 m/s, 219° | - | - |
| 1788374332 | 23.33° C | 60% | 1020 hPa | 0 mm | 4.92 m/s, 165° | - | - |
| 1788374056 | 23.33° C | 61% | 1020 hPa | 0 mm | 5.81 m/s, 167° | - | - |
| 1788373732 | 23.33° C | 62% | 1020 hPa | 0 mm | 6.26 m/s, 219° | - | - |
| 1788373432 | 23.89° C | 62% | 1019.6 hPa | 0 mm | 4.92 m/s, 249° | - | - |
| 1788373132 | 23.89° C | 62% | 1019.6 hPa | 0 mm | 4.92 m/s, 243° | - | - |
| 1788372832 | 23.89° C | 62% | 1019.6 hPa | 0 mm | 5.81 m/s, 236° | - | - |
* Rain latest hour (hover to see other rain measurements)
** Current wind speed in m/s (hover to see current wind gust speed)